This demonstration page uses our WeatherBlox Daily Observations layout. Learn more.

Left ArrowRight Arrow

Hourly Observations for May 17, 2017

Temp ( °F °C ) Dew Point ( °F °C ) Humidity (%) Winds ( mph kmh ) Pressure ( in mb ) Visibility ( mi km ) Precip ( " mm )
12:15 am 00:15 Mostly Cloudy with Thunderstorms 59 15 55 13 88 88 NW 14 22 29.47 998 10 16 0.19 4.83
12:35 am 00:35 Cloudy with Thunderstorms 57 14 54 12 88 88 W 29 46 29.56 1001 5 8 0.29 7.37
12:55 am 00:55 Mostly Cloudy with Nearby Thunderstorms 57 14 54 12 88 88 W 20 31 29.56 1001 8 13 0.35 8.89
1:15 am 01:15 Mostly Cloudy 57 14 52 11 82 82 N 26 43 29.47 998 10 16 0.03 0.76
1:35 am 01:35 Mostly Clear 57 14 52 11 82 82 N 18 30 29.47 998 10 16 0.03 0.76
1:55 am 01:55 Clear 57 14 52 11 82 82 N 13 20 29.47 998 10 16 0.03 0.76
2:15 am 02:15 Clear 55 13 52 11 88 88 N 10 17 29.44 997 10 16 0.00 0.00
2:35 am 02:35 Clear 55 13 52 11 88 88 NNE 5 7 29.47 998 10 16 0.00 0.00
2:55 am 02:55 Clear 55 13 52 11 88 88 NNE 7 11 29.44 997 10 16 0.00 0.00
3:15 am 03:15 Clear 55 13 52 11 88 88 NE 5 7 29.44 997 10 16 0.00 0.00
3:35 am 03:35 Partly Cloudy 55 13 52 11 88 88 Calm 29.44 997 10 16 0.00 0.00
3:55 am 03:55 Cloudy 55 13 52 11 88 88 Calm 29.44 997 10 16 0.00 0.00
4:15 am 04:15 Cloudy 55 13 52 11 88 88 Calm 29.47 998 10 16 0.00 0.00
4:35 am 04:35 Cloudy 55 13 54 12 94 94 Calm 29.44 997 10 16 0.00 0.00
4:55 am 04:55 Cloudy 55 13 54 12 94 94 NW 8 13 29.47 998 10 16 0.00 0.00
5:15 am 05:15 Cloudy 55 13 54 12 94 94 W 3 6 29.47 998 10 16 0.00 0.00
5:35 am 05:35 Cloudy with Nearby Thunderstorms 55 13 54 12 94 94 Calm 29.47 998 10 16 0.00 0.00
5:55 am 05:55 Mostly Cloudy 55 13 54 12 94 94 ENE 10 17 29.41 996 10 16 0.02 0.51
6:15 am 06:15 Mostly Cloudy 55 13 54 12 94 94 NW 5 7 29.41 996 10 16 0.01 0.25
6:35 am 06:35 Partly Cloudy 55 13 52 11 88 88 NNW 10 17 29.41 996 10 16 0.01 0.25
6:55 am 06:55 Partly Cloudy 55 13 52 11 88 88 NNW 9 15 29.38 995 10 16 0.01 0.25
7:15 am 07:15 Partly Cloudy 55 13 52 11 88 88 Calm 29.41 996 10 16 0.00 0.00
7:35 am 07:35 Cloudy 55 13 54 12 94 94 NW 8 13 29.41 996 10 16 0.00 0.00
7:55 am 07:55 Cloudy 55 13 54 12 94 94 NW 5 7 29.41 996 10 16 0.00 0.00
8:15 am 08:15 Cloudy 55 13 54 12 94 94 NNW 9 15 29.41 996 10 16 0.00 0.00
8:35 am 08:35 Cloudy 55 13 54 12 94 94 N 10 17 29.41 996 10 16 0.00 0.00
8:55 am 08:55 Cloudy 55 13 52 11 88 88 NNE 13 20 29.38 995 10 16 0.00 0.00
9:15 am 09:15 Cloudy 55 13 54 12 94 94 N 7 11 29.38 995 10 16 0.01 0.25
9:35 am 09:35 Cloudy 55 13 52 11 88 88 N 7 11 29.38 995 10 16 0.04 1.02
9:55 am 09:55 Cloudy 55 13 52 11 88 88 NE 7 11 29.38 995 9 14 0.09 2.29
10:15 am 10:15 Cloudy 55 13 52 11 88 88 NE 3 6 29.41 996 7 11 0.07 1.78
10:35 am 10:35 Cloudy 55 13 54 12 94 94 Calm 29.41 996 7 11 0.12 3.05
10:55 am 10:55 Mostly Cloudy 55 13 54 12 94 94 ESE 6 9 29.41 996 4 6 0.19 4.83
11:15 am 11:15 Mostly Cloudy 55 13 54 12 94 94 E 6 9 29.41 996 3 4 0.16 4.06
11:35 am 11:35 Cloudy 55 13 54 12 94 94 SE 12 19 29.41 996 8 13 0.21 5.33
11:55 am 11:55 Cloudy 55 13 52 11 88 88 SSE 14 22 29.41 996 10 16 0.24 6.10
12:15 pm 12:15 Cloudy 55 13 52 11 88 88 S 16 26 29.41 996 10 16 0.01 0.25
12:35 pm 12:35 Cloudy 55 13 52 11 88 88 SSW 17 28 29.38 995 10 16 0.01 0.25
12:55 pm 12:55 Cloudy 57 14 52 11 82 82 SW 13 20 29.35 994 10 16 0.01 0.25
1:15 pm 13:15 Mostly Cloudy 59 15 54 12 82 82 WSW 13 20 29.35 994 10 16 0.00 0.00
1:35 pm 13:35 Mostly Sunny 59 15 52 11 77 77 WSW 12 19 29.35 994 10 16 0.00 0.00
1:55 pm 13:55 Mostly Sunny 59 15 52 11 77 77 W 9 15 29.38 995 10 16 0.00 0.00
2:15 pm 14:15 Partly Cloudy 61 16 54 12 77 77 W 14 22 29.38 995 10 16 0.00 0.00
2:35 pm 14:35 Partly Cloudy 63 17 54 12 73 73 W 13 20 29.38 995 10 16 0.00 0.00
2:55 pm 14:55 Mostly Cloudy 64 18 54 12 68 68 W 10 17 29.35 994 10 16 0.00 0.00
3:15 pm 15:15 Mostly Cloudy 66 19 52 11 60 60 W 20 31 29.35 994 10 16 0.00 0.00
3:35 pm 15:35 Cloudy 64 18 55 13 73 73 NW 21 33 29.41 996 10 16 0.00 0.00
3:55 pm 15:55 Cloudy 64 18 54 12 68 68 NW 23 37 29.41 996 10 16 0.00 0.00
4:15 pm 16:15 Mostly Cloudy 63 17 54 12 73 73 NW 21 33 29.41 996 10 16 0.00 0.00
4:35 pm 16:35 Cloudy 63 17 52 11 68 68 NW 22 35 29.41 996 10 16 0.00 0.00
4:55 pm 16:55 Cloudy 63 17 52 11 68 68 NW 20 31 29.44 997 10 16 0.00 0.00
5:15 pm 17:15 Cloudy 63 17 52 11 68 68 NW 21 33 29.44 997 10 16 0.00 0.00
5:35 pm 17:35 Cloudy 61 16 50 10 68 68 NW 20 31 29.44 997 10 16 0.00 0.00
5:55 pm 17:55 Cloudy 61 16 50 10 68 68 NW 23 37 29.44 997 10 16 0.00 0.00
6:15 pm 18:15 Cloudy 61 16 48 9 63 63 NW 20 31 29.47 998 10 16 0.00 0.00
6:35 pm 18:35 Cloudy 61 16 48 9 63 63 NW 17 28 29.47 998 10 16 0.00 0.00
6:55 pm 18:55 Cloudy 59 15 48 9 68 68 NW 15 24 29.53 1000 10 16 0.00 0.00
7:15 pm 19:15 Cloudy 59 15 48 9 68 68 NW 15 24 29.53 1000 10 16 0.00 0.00
7:35 pm 19:35 Cloudy 59 15 50 10 72 72 NNW 16 26 29.56 1001 10 16 0.00 0.00
7:55 pm 19:55 Cloudy 59 15 48 9 68 68 NW 14 22 29.56 1001 10 16 0.00 0.00
8:15 pm 20:15 Cloudy 57 14 48 9 72 72 NW 17 28 29.59 1002 10 16 0.00 0.00
8:35 pm 20:35 Cloudy 57 14 48 9 72 72 NW 12 19 29.62 1003 10 16 0.00 0.00
8:55 pm 20:55 Cloudy 57 14 48 9 72 72 NW 15 24 29.65 1004 10 16 0.00 0.00
9:15 pm 21:15 Mostly Cloudy 57 14 48 9 72 72 NNW 10 17 29.65 1004 10 16 0.00 0.00
9:35 pm 21:35 Mostly Cloudy 55 13 48 9 77 77 NNW 18 30 29.65 1004 10 16 0.00 0.00
9:55 pm 21:55 Partly Cloudy 55 13 48 9 77 77 NNW 12 19 29.68 1005 10 16 0.00 0.00
10:15 pm 22:15 Mostly Clear 54 12 48 9 82 82 NW 12 19 29.74 1007 10 16 0.00 0.00
10:35 pm 22:35 Partly Cloudy 54 12 48 9 82 82 NW 12 19 29.74 1007 10 16 0.00 0.00
10:55 pm 22:55 Cloudy 55 13 48 9 77 77 NW 13 20 29.77 1008 10 16 0.00 0.00
11:15 pm 23:15 Cloudy 55 13 48 9 77 77 NNW 13 20 29.77 1008 10 16 0.00 0.00
11:35 pm 23:35 Cloudy 54 12 46 8 77 77 NNW 12 19 29.77 1008 10 16 0.00 0.00
11:55 pm 23:55 Cloudy 54 12 46 8 77 77 NNW 16 26 29.77 1008 10 16 0.00 0.00

Powered by AerisWeather